Weather History for KSUW - September, 2013

Change the Weather History Date:

Thursday, September 19, 2013

  Actual Average Record
Temperature  
Mean Temperature 62 °F -  
Max Temperature 65 °F 65 °F 90 °F (1984)
Min Temperature 58 °F 47 °F 31 °F (1991)
Degree Days  
Heating Degree Days 4    
Growing Degree Days 12 (Base 50)    
Moisture  
Dew Point 60 °F    
Average Humidity 98    
Maximum Humidity 100    
Minimum Humidity 90    
Precipitation  
Precipitation 0.32 in - - ()
Sea Level Pressure  
Sea Level Pressure 29.71 in    
Wind  
Wind Speed 5 mph (NE)    
Max Wind Speed 10 mph    
Max Gust Speed 16 mph    
Visibility 3 miles    
Events Fog , Rain    
Averages and records for this station are not official NWS values.
T = Trace of Precipitation, MM = Missing Value Source: NWS Daily Summary

Daily Weather History Graph

Daily Weather History Graph

Search for Another Location

Airport or City:

Trip Planner

Search our weather history database for the weather conditions in past years. The results will help you decide how hot, cold, wet, or windy it might be!

Date:

Astronomy

Sep. 19, 2013 Rise Set
Actual Time 6:51 AM CDT 7:11 PM CDT
Civil Twilight 6:21 AM CDT 7:41 PM CDT
Nautical Twilight 5:45 AM CDT 8:17 PM CDT
Astronomical Twilight 5:08 AM CDT 8:54 PM CDT
Moon 7:04 PM CDT (9/19) 7:04 AM CDT (9/19)
Length of Visible Light 13h 20m
Length of Day
12h 19m
Full, 100% of the Moon is Illuminated
Sep 19
Full
Sep 26
Last Quarter
Oct 4
New
Oct 11
First Quarter
Oct 18
Full

Hourly Weather History & Observations

Time (CDT) Temp. Dew Point Humidity Pressure Visibility Wind Dir Wind Speed Gust Speed Precip Events Conditions
12:15 AM 59.5 °F 59.4 °F 99% 29.74 in 3.0 mi ENE 6.9 mph - N/A   Overcast
12:35 AM 59.5 °F 59.4 °F 99% 29.75 in 3.0 mi ENE 6.9 mph - N/A   Overcast
12:55 AM 59.5 °F 59.4 °F 99% 29.74 in 3.0 mi ENE 5.8 mph - N/A   Overcast
1:15 AM 59.4 °F 59.2 °F 99% 29.75 in 3.0 mi ENE 6.9 mph - N/A   Overcast
1:35 AM 59.2 °F 59.0 °F 99% 29.77 in 3.0 mi ENE 3.5 mph - N/A   Overcast
1:55 AM 59.2 °F 59.0 °F 99% 29.77 in 3.0 mi Calm Calm - N/A   Overcast
2:15 AM 59.0 °F 59.0 °F 100% 29.76 in 2.5 mi ENE 6.9 mph - N/A   Overcast
2:35 AM 59.0 °F 58.6 °F 99% 29.75 in 2.5 mi NE 5.8 mph - N/A   Overcast
2:55 AM 58.6 °F 58.5 °F 99% 29.75 in 2.0 mi NE 5.8 mph - N/A   Overcast
3:15 AM 58.6 °F 58.5 °F 99% 29.75 in 1.8 mi Calm Calm - N/A   Overcast
3:35 AM 58.5 °F 58.3 °F 99% 29.74 in 1.2 mi ENE 4.6 mph - N/A   Overcast
3:55 AM 58.3 °F 58.3 °F 100% 29.73 in 1.0 mi Calm Calm - N/A   Overcast
4:15 AM 58.1 °F 58.1 °F 100% 29.72 in 0.8 mi NE 4.6 mph - N/A   Overcast
4:35 AM 58.1 °F 58.1 °F 100% 29.72 in 1.0 mi NNE 5.8 mph - N/A   Overcast
4:55 AM 58.1 °F 58.1 °F 100% 29.72 in 1.2 mi NE 5.8 mph - N/A   Overcast
5:15 AM 58.1 °F 58.1 °F 100% 29.72 in 1.2 mi NE 4.6 mph - N/A   Overcast
5:35 AM 58.3 °F 58.3 °F 100% 29.72 in 1.0 mi Calm Calm - N/A   Overcast
5:55 AM 58.5 °F 58.5 °F 100% 29.72 in 0.8 mi Calm Calm - N/A   Overcast
6:15 AM 58.5 °F 58.5 °F 100% 29.71 in 1.0 mi NE 3.5 mph - N/A   Overcast
6:35 AM 58.5 °F 58.5 °F 100% 29.67 in 0.8 mi NE 10.4 mph - N/A   Overcast
6:55 AM 58.3 °F 58.3 °F 100% 29.69 in 1.0 mi East 10.4 mph - N/A   Overcast
7:15 AM 58.1 °F 58.1 °F 100% 29.70 in 0.5 mi ENE 6.9 mph - N/A Fog Fog
7:35 AM 58.1 °F 58.1 °F 100% 29.71 in 0.2 mi NE 5.8 mph - N/A Fog Fog
7:55 AM 58.1 °F 58.1 °F 100% 29.71 in 0.2 mi NE 5.8 mph - N/A Fog Fog
8:15 AM 58.3 °F 58.3 °F 100% 29.72 in 0.2 mi NE 8.1 mph - N/A Fog Fog
8:35 AM 58.5 °F 58.5 °F 100% 29.73 in 0.2 mi NE 5.8 mph - N/A Fog Fog
8:55 AM 58.5 °F 58.5 °F 100% 29.71 in 0.5 mi ENE 6.9 mph - N/A Fog Fog
9:15 AM 59.0 °F 59.0 °F 100% 29.72 in 1.2 mi NE 4.6 mph - N/A   Overcast
9:35 AM 59.2 °F 59.2 °F 100% 29.71 in 1.5 mi NE 4.6 mph - N/A   Overcast
9:55 AM 59.2 °F 59.0 °F 99% 29.71 in 2.0 mi ENE 3.5 mph - N/A   Overcast
10:15 AM 59.7 °F 59.2 °F 98% 29.72 in 2.0 mi NNE 3.5 mph - N/A   Overcast
10:35 AM 59.9 °F 59.2 °F 97% 29.70 in 2.5 mi NE 4.6 mph - N/A   Overcast
10:55 AM 61.0 °F 59.7 °F 96% 29.70 in 3.0 mi NE 3.5 mph - N/A   Overcast
11:15 AM 60.8 °F 59.5 °F 96% 29.68 in 4.0 mi NNE 5.8 mph - N/A   Overcast
11:35 AM 60.1 °F 58.8 °F 96% 29.70 in 3.0 mi NE 4.6 mph - N/A   Overcast
11:55 AM 59.7 °F 58.6 °F 96% 29.70 in 3.0 mi NNE 5.8 mph - N/A   Overcast
12:15 PM 59.0 °F 58.3 °F 97% 29.71 in 2.0 mi ENE 5.8 mph - N/A   Overcast
12:35 PM 58.6 °F 58.3 °F 99% 29.70 in 1.5 mi NE 4.6 mph - N/A   Overcast
12:55 PM 58.6 °F 58.3 °F 99% 29.71 in 1.5 mi East 4.6 mph - 0.12 in Rain Heavy Rain
1:15 PM 58.6 °F 58.5 °F 99% 29.71 in 2.0 mi ESE 3.5 mph - 0.02 in Rain Light Rain
1:35 PM 59.0 °F 58.5 °F 98% 29.71 in 1.8 mi Calm Calm - 0.12 in Rain Rain
1:55 PM 59.0 °F 59.0 °F 100% 29.69 in 1.8 mi NW 4.6 mph - 0.16 in Rain Rain
2:15 PM 59.4 °F 59.2 °F 99% 29.67 in 1.5 mi NE 5.8 mph - 0.02 in Rain Light Rain
2:35 PM 59.9 °F 59.7 °F 99% 29.64 in 2.0 mi NE 6.9 mph - 0.04 in Rain Light Rain
2:55 PM 60.1 °F 59.9 °F 99% 29.64 in 2.5 mi NNE 6.9 mph - 0.04 in Rain Light Rain
3:15 PM 61.5 °F 61.2 °F 99% 29.67 in 4.0 mi SE 3.5 mph - N/A   Overcast
3:35 PM 61.9 °F 61.2 °F 97% 29.67 in 5.0 mi South 4.6 mph - N/A   Overcast
3:55 PM 62.1 °F 61.2 °F 97% 29.68 in 4.0 mi SW 4.6 mph - N/A   Overcast
4:15 PM 63.1 °F 62.1 °F 96% 29.69 in 7.0 mi West 4.6 mph - N/A   Overcast
4:35 PM 63.0 °F 62.1 °F 97% 29.69 in 5.0 mi WSW 3.5 mph - N/A   Overcast
4:55 PM 62.6 °F 61.9 °F 97% 29.69 in 4.0 mi West 4.6 mph - N/A   Overcast
5:15 PM 63.1 °F 62.6 °F 98% 29.68 in 5.0 mi Calm Calm - N/A   Overcast
5:35 PM 63.5 °F 62.4 °F 96% 29.68 in 7.0 mi Calm Calm - N/A   Overcast
5:55 PM 63.7 °F 62.6 °F 96% 29.68 in 10.0 mi Calm Calm - N/A   Overcast
6:15 PM 63.5 °F 62.6 °F 97% 29.69 in 5.0 mi Calm Calm - N/A   Overcast
6:35 PM 63.5 °F 62.8 °F 97% 29.70 in 4.0 mi South 3.5 mph - N/A   Overcast
6:55 PM 63.1 °F 62.8 °F 99% 29.73 in 3.0 mi SW 4.6 mph - N/A   Overcast
7:15 PM 63.1 °F 62.8 °F 99% 29.70 in 2.5 mi Calm Calm - N/A   Overcast
7:35 PM 62.6 °F 62.6 °F 100% 29.71 in 2.5 mi Calm Calm - N/A   Overcast
7:55 PM 62.6 °F 62.6 °F 100% 29.71 in 2.5 mi Calm Calm - N/A   Overcast
8:15 PM 62.1 °F 61.9 °F 99% 29.70 in 0.8 mi Calm Calm - N/A   Overcast
8:35 PM 61.2 °F 61.2 °F 100% 29.70 in 2.0 mi Calm Calm - N/A   Overcast
8:55 PM 60.4 °F 60.4 °F 100% 29.70 in 1.5 mi Calm Calm - N/A   Overcast
9:15 PM 60.4 °F 60.4 °F 100% 29.70 in 0.8 mi WNW 3.5 mph - N/A   Overcast
9:35 PM 62.6 °F 62.6 °F 100% 29.69 in 2.5 mi West 4.6 mph - N/A   Overcast
9:55 PM 64.6 °F 64.6 °F 100% 29.69 in 10.0 mi West 8.1 mph - N/A   Mostly Cloudy
10:15 PM 65.1 °F 64.4 °F 98% 29.70 in 10.0 mi West 6.9 mph - N/A   Mostly Cloudy
10:35 PM 65.5 °F 63.5 °F 93% 29.70 in 10.0 mi WNW 8.1 mph - N/A   Scattered Clouds
10:55 PM 64.9 °F 62.1 °F 90% 29.70 in 10.0 mi WNW 8.1 mph - N/A   Scattered Clouds
11:15 PM 64.2 °F 61.2 °F 90% 29.71 in 10.0 mi West 5.8 mph - N/A   Clear
11:35 PM 63.5 °F 60.8 °F 91% 29.71 in 10.0 mi West 8.1 mph 16.1 mph N/A   Clear
11:55 PM 63.0 °F 60.4 °F 91% 29.71 in 10.0 mi West 6.9 mph - N/A   Scattered Clouds